• In Hungary
  • List of Countries
  • For 7 days
  • Water Temperature
  • Satellite Maps
  • Weather Map
  • News
  • Weather Widgets
  • user-avatar
    Login

    Hourly Weather Houston

    Today, 22 October, Sunday

    Time Temperature Precipitation Wind Pressure Humidity
    00:00 +27°C° 0 mm 2 mps 759 mmHg 89%
    01:00 +27°C° 0 mm 3 mps 759 mmHg 89%
    02:00 +27°C° 0 mm 3 mps 759 mmHg 89%
    03:00 +27°C° 0 mm 4 mps 759 mmHg 89%
    04:00 +26°C° 2.9 mm 3 mps 759 mmHg 89%
    05:00 +26°C° 2.9 mm 3 mps 759 mmHg 89%
    06:00 +26°C° 0 mm 1 mps 761 mmHg 94%
    07:00 +25°C° 8.5 mm 3 mps 761 mmHg 92%
    08:00 +23°C° 8.5 mm 4 mps 761 mmHg 90%
    09:00 +22°C° 8.5 mm 5 mps 762 mmHg 88%
    10:00 +23°C° 0.9 mm 4 mps 762 mmHg 83%
    11:00 +25°C° 0.9 mm 4 mps 762 mmHg 77%
    12:00 +27°C° 0.9 mm 4 mps 762 mmHg 71%
    13:00 +27°C° 0 mm 4 mps 762 mmHg 68%
    14:00 +27°C° 0 mm 5 mps 762 mmHg 65%
    15:00 +28°C° 0 mm 5 mps 761 mmHg 62%
    16:00 +27°C° 0 mm 5 mps 762 mmHg 64%
    17:00 +26°C° 0 mm 4 mps 762 mmHg 66%
    18:00 +23°C° 0 mm 4 mps 762 mmHg 68%
    19:00 +23°C° 0 mm 4 mps 763 mmHg 68%
    20:00 +22°C° 0 mm 4 mps 764 mmHg 68%
    21:00 +21°C° 0 mm 5 mps 764 mmHg 69%
    22:00 +21°C° 0 mm 4 mps 764 mmHg 65%
    23:00 +20°C° 0 mm 4 mps 764 mmHg 62%

    Tomorrow, 23 October, Monday

    Time Temperature Precipitation Wind Pressure Humidity
    00:00 +19°C° 0 mm 4 mps 765 mmHg 59%
    01:00 +18°C° 0 mm 4 mps 765 mmHg 58%
    02:00 +18°C° 0 mm 4 mps 764 mmHg 57%
    03:00 +17°C° 0 mm 4 mps 764 mmHg 56%
    04:00 +17°C° 0 mm 4 mps 764 mmHg 56%
    05:00 +16°C° 0 mm 3 mps 764 mmHg 56%
    06:00 +16°C° 0 mm 3 mps 764 mmHg 56%
    07:00 +17°C° 0 mm 3 mps 765 mmHg 53%
    08:00 +18°C° 0 mm 3 mps 765 mmHg 51%
    09:00 +19°C° 0 mm 3 mps 765 mmHg 48%
    10:00 +21°C° 0 mm 4 mps 765 mmHg 43%
    11:00 +23°C° 0 mm 4 mps 765 mmHg 37%
    12:00 +25°C° 0 mm 4 mps 765 mmHg 32%
    13:00 +26°C° 0 mm 4 mps 764 mmHg 32%
    14:00 +26°C° 0 mm 3 mps 764 mmHg 32%
    15:00 +27°C° 0 mm 3 mps 763 mmHg 31%
    16:00 +25°C° 0 mm 3 mps 763 mmHg 34%
    17:00 +24°C° 0 mm 3 mps 763 mmHg 37%
    18:00 +23°C° 0 mm 2 mps 763 mmHg 41%
    19:00 +21°C° 0 mm 2 mps 763 mmHg 42%
    20:00 +21°C° 0 mm 2 mps 764 mmHg 44%
    21:00 +20°C° 0 mm 2 mps 764 mmHg 46%
    22:00 +20°C° 0 mm 2 mps 765 mmHg 47%
    23:00 +19°C° 0 mm 2 mps 765 mmHg 48%

    Day after tomorrow, 24 October, Tuesday

    Time Temperature Precipitation Wind Pressure Humidity
    00:00 +19°C° 0 mm 2 mps 765 mmHg 49%
    01:00 +19°C° 0 mm 2 mps 765 mmHg 50%
    02:00 +19°C° 0 mm 3 mps 766 mmHg 51%
    03:00 +18°C° 0 mm 4 mps 766 mmHg 52%
    04:00 +18°C° 0 mm 4 mps 766 mmHg 54%
    05:00 +18°C° 0 mm 4 mps 766 mmHg 55%
    06:00 +17°C° 0 mm 4 mps 767 mmHg 56%
    07:00 +19°C° 0 mm 4 mps 768 mmHg 51%
    08:00 +20°C° 0 mm 5 mps 768 mmHg 46%
    09:00 +21°C° 0 mm 5 mps 769 mmHg 41%
    10:00 +22°C° 0 mm 5 mps 769 mmHg 37%
    11:00 +23°C° 0 mm 6 mps 768 mmHg 33%
    12:00 +24°C° 0 mm 6 mps 768 mmHg 28%
    13:00 +24°C° 0 mm 6 mps 768 mmHg 29%
    14:00 +24°C° 0 mm 6 mps 767 mmHg 30%
    15:00 +24°C° 0 mm 6 mps 766 mmHg 30%
    16:00 +23°C° 0 mm 6 mps 766 mmHg 32%
    17:00 +21°C° 0 mm 5 mps 767 mmHg 34%
    18:00 +20°C° 0 mm 4 mps 767 mmHg 36%
    19:00 +19°C° 0 mm 4 mps 767 mmHg 37%
    20:00 +19°C° 0 mm 4 mps 768 mmHg 37%
    21:00 +18°C° 0 mm 4 mps 769 mmHg 37%
    22:00 +17°C° 0 mm 4 mps 769 mmHg 38%
    23:00 +17°C° 0 mm 4 mps 769 mmHg 38%

    25 October, Wednesday

    Time Temperature Precipitation Wind Pressure Humidity
    00:00 +15°C° 0 mm 4 mps 769 mmHg 39%
    01:00 +15°C° 0 mm 4 mps 769 mmHg 39%
    02:00 +14°C° 0 mm 3 mps 768 mmHg 40%
    03:00 +14°C° 0 mm 3 mps 768 mmHg 41%
    04:00 +13°C° 0 mm 3 mps 768 mmHg 41%
    05:00 +13°C° 0 mm 3 mps 768 mmHg 42%
    06:00 +12°C° 0 mm 3 mps 768 mmHg 43%
    07:00 +14°C° 0 mm 3 mps 768 mmHg 42%
    08:00 +16°C° 0 mm 3 mps 769 mmHg 41%
    09:00 +17°C° 0 mm 3 mps 769 mmHg 41%
    10:00 +18°C° 0 mm 3 mps 768 mmHg 36%
    11:00 +20°C° 0 mm 3 mps 768 mmHg 32%
    12:00 +21°C° 0 mm 3 mps 767 mmHg 28%
    13:00 +22°C° 0 mm 3 mps 766 mmHg 28%
    14:00 +22°C° 0 mm 3 mps 765 mmHg 28%
    15:00 +22°C° 0 mm 3 mps 765 mmHg 28%
    16:00 +21°C° 0 mm 2 mps 764 mmHg 31%
    17:00 +20°C° 0 mm 2 mps 764 mmHg 34%
    18:00 +19°C° 0 mm 1 mps 764 mmHg 37%
    19:00 +19°C° 0 mm 1 mps 764 mmHg 38%
    20:00 +18°C° 0 mm 1 mps 764 mmHg 39%
    21:00 +18°C° 0 mm 1 mps 764 mmHg 40%
    22:00 +18°C° 0 mm 1 mps 763 mmHg 40%
    23:00 +16°C° 0 mm 2 mps 763 mmHg 41%

    26 October, Thursday

    Time Temperature Precipitation Wind Pressure Humidity
    00:00 +16°C° 0 mm 2 mps 762 mmHg 42%
    01:00 +16°C° 0 mm 2 mps 762 mmHg 42%
    02:00 +16°C° 0 mm 2 mps 762 mmHg 42%
    03:00 +16°C° 0 mm 2 mps 761 mmHg 43%
    04:00 +15°C° 0 mm 2 mps 761 mmHg 43%
    05:00 +15°C° 0 mm 2 mps 761 mmHg 43%
    06:00 +15°C° 0 mm 2 mps 761 mmHg 43%
    07:00 +17°C° 0 mm 2 mps 761 mmHg 43%
    08:00 +19°C° 0 mm 2 mps 762 mmHg 43%
    09:00 +21°C° 0 mm 3 mps 762 mmHg 43%
    10:00 +22°C° 0 mm 3 mps 761 mmHg 42%
    11:00 +25°C° 0 mm 4 mps 761 mmHg 41%
    12:00 +27°C° 0 mm 5 mps 760 mmHg 40%
    13:00 +27°C° 0 mm 5 mps 759 mmHg 42%
    14:00 +27°C° 0 mm 5 mps 759 mmHg 44%
    15:00 +27°C° 0 mm 6 mps 758 mmHg 45%
    16:00 +26°C° 0 mm 5 mps 758 mmHg 50%
    17:00 +23°C° 0 mm 5 mps 758 mmHg 55%
    18:00 +22°C° 0 mm 4 mps 758 mmHg 60%
    19:00 +22°C° 0 mm 4 mps 758 mmHg 63%
    20:00 +21°C° 0 mm 4 mps 758 mmHg 67%
    21:00 +21°C° 0 mm 4 mps 758 mmHg 70%
    22:00 +21°C° 0 mm 4 mps 758 mmHg 72%
    23:00 +21°C° 0 mm 4 mps 758 mmHg 74%

    27 October, Friday

    Time Temperature Precipitation Wind Pressure Humidity
    00:00 +21°C° 0 mm 4 mps 757 mmHg 76%
    01:00 +21°C° 0 mm 3 mps 757 mmHg 78%
    02:00 +21°C° 0 mm 3 mps 757 mmHg 80%
    03:00 +21°C° 0 mm 3 mps 757 mmHg 82%
    04:00 +21°C° 0 mm 2 mps 757 mmHg 83%
    05:00 +21°C° 0 mm 2 mps 758 mmHg 84%
    06:00 +22°C° 0 mm 1 mps 758 mmHg 85%
    07:00 +23°C° 0.1 mm 2 mps 759 mmHg 81%
    08:00 +24°C° 0.1 mm 2 mps 759 mmHg 77%
    09:00 +25°C° 0.1 mm 3 mps 760 mmHg 72%
    10:00 +25°C° 0.1 mm 4 mps 760 mmHg 70%
    11:00 +25°C° 0.1 mm 5 mps 760 mmHg 67%
    12:00 +24°C° 0.1 mm 6 mps 760 mmHg 64%
    13:00 +23°C° 0.1 mm 6 mps 760 mmHg 61%
    14:00 +23°C° 0.1 mm 7 mps 759 mmHg 59%
    15:00 +22°C° 0.1 mm 7 mps 759 mmHg 56%
    16:00 +21°C° 0 mm 6 mps 760 mmHg 55%
    17:00 +20°C° 0 mm 6 mps 760 mmHg 54%
    18:00 +19°C° 0 mm 5 mps 761 mmHg 53%
    19:00 +17°C° 0 mm 6 mps 762 mmHg 51%
    20:00 +16°C° 0 mm 6 mps 762 mmHg 48%
    21:00 +16°C° 0 mm 6 mps 763 mmHg 46%
    22:00 +15°C° 0 mm 6 mps 763 mmHg 44%
    23:00 +15°C° 0 mm 6 mps 763 mmHg 42%
    Show more